Location: Athabasca
(54.7194°N, 113.2858°W)
Time: 10:35:39
(UTC+00:00)

PRISM - Pass Details

Date: 09 December 2023
Orbit: 515 x 532 km, 98.2° (Epoch: 04 March)

Event Time Altitude Azimuth Distance (km) Brightness Sun altitude
Exits shadow 00:56:59 11° 18° (NNE) 1,718 ? -14.5°
Drops below altitude 10° 00:57:19 10° 14° (NNE) 1,809 ? -14.6°
Sets 00:59:57 0° 355° (N) 2,698 ? -14.9°
